Probability
0 0 0 0 0 0 0 0 0 0 0 0 0 0 0 0 0 0 0 0 0 0 0 0 0 0 0 0 0 0 0 0 0 0 0 0 0 0 0 0 0 0 0 0 0 0 0 0 0
0 0 0 0 0 0 0 0 0 0 0 0 0 0 0 0 0 0 0 0 0 0 0 0 0 0 0 0 0 0 0 0 0 0 0 0 0 0 0 0 0 0 0 0 0 0 0 0 0
0 0 0 0 0 0 0 0 0 0 0 0 0 0 0 0 0 0 0 0 0 0 0 0 0 0 0 0 0 0 0 0 0 0 0 0 0 0 0 0 0 0 0 0 0 0 0 0 0
0 0 0 0 0 0 0 0 0 0 0 0 0 0 0 0 0 0 0 0 0 0 0 0 0 0 0 0 0 0 0 0 0 0 0 0 0 0 0 0 0 0 0 0 0 0 0 0 0
0 0 0 0 0 0 0 0 0 0 0 0 0 0 0 0 0 0 0 0 0 0 0 0 0 0 0 0 0 0 0 0 0 0 0 0 0 0 0 0 0 0 0 0 0 0 0 0 0
0 0 0 0 0 0 0 0 0 0 0 0 0 0 0 0 0 0 0 0 0 0 0 0 0 0 0 0 0 0 0 0 0 0 0 0 0 0 0 0 0 0 0 0 0 0 0 0 0
0 0 0 0 0 0 0 0 0 0 0 0 0 0 0 0 0 0 0 0 0 0 0 0 0 0 0 0 0 0 0 0 0 0 0 0 0 0 0 0 0 0 0 0 0 0 0 0 0
0 0 0 0 0 0 0 0 0 0 0 0 0 0 0 0 0 0 0 0 0 0 0 0 0 0 0 0 0 0 0 0 0 0 0 0 0 0 0 0 0 0 0 0 0 0 0 0 0
0 0 0 0 0 0 0 0 0 0 0 0 0 0 0 0 0 0 0 0 0 0 0 0 0 0 0 0 0 0 0 0 0 0 0 0 0 0 0 0 0 0 0 0 0 0 0 0 0
0 0 0 0 0 0 0 0 0 0 0 0 0 0 0 0 0 0 0 0 0 0 0 0 0 0 0 0 0 0 0 0 0 0 0 0 0 0 0 0 0 0 0 0 0 0 0 0 0
0 0 0 0 0 0 0 0 0 0 0 0 0 0 0 0 0 0 0 0 0 0 0 0 0 0 0 0 0 0 0 0 0 0 0 0 0 0 0 0 0 0 0 0 0 0 0 0 0
0 0 0 0 0 0 0 0 0 0 0 0 0 0 0 0 0 0 0 0 0 0 0 0 0 0 0 0 0 0 0 0 0 0 0 0 0 0 0 0 0 0 0 0 0 0 0 0 0
0 0 0 0 0 0 0 0 0 0 0 0 0 0 0 0 0 0 0 0 0 0 0 0 0 0 0 0 0 0 0 0 0 0 0 0 0 0 0 0 0 0 0 0 0 0 0 0 0
0 0 0 0 0 0 0 0 0 0 0 0 0 0 0 0 0 0 0 0 0 0 0 0 0 0 0 0 0 0 0 0 0 0 0 0 0 0 0 0 0 0 0 0 0 0 0 0 0
0 0 0 0 0 0 0 0 0 0 0 0 0 0 0 0 0 0 0 0 0 0 0 0 0 0 0 0 0 0 0 0 0 0 0 0 0 0 0 0 0 0 0 0 0 0 0 0 0
0 0 0 0 0 0 0 0 0 0 0 0 0 0 0 0 0 0 0 0 0 0 0 0 0 0 0 0 0 0 0 0 0 0 0 0 0 0 0 0 0 0 0 0 0 0 0 0 0
0 0 0 0 0 0 0 0 0 0 0 0 0 0 0 0 0 0 0 0 0 0 0 0 0 0 0 0 0 0 0 0 0 0 0 0 0 0 0 0 0 0 0 0 0 0 0 0 0
0 0 0 0 0 0 0 0 0 0 0 0 0 0 0 0 0 0 0 0 0 0 0 0 0 0 0 0 0 0 0 0 0 0 0 0 0 0 0 0 0 0 0 0 0 0 0 0 0
0 0 0 0 0 0 0 0 0 0 0 0 0 0 0 0 0 0 0 0 0 0 0 0 0 0 0 0 0 0 0 0 0 0 0 0 0 0 0 0 0 0 0 0 0 0 0 0 0
0 0 0 0 0 0 0 0 0 0 0 0 0 0 0 0 0 0 0 0 0 0 0 0 0 0 0 0 0 0 0 0 0 0 0 0 0 0 0 0 0 0 0 0 0 0 0 0 0
0 0 0 0 0 0 0 0 0 0 0 0 0 0 0 0 0 0 0 0 0 0 0 0 0 0 0 0 0 0 0 0 0 0 0 0 0 0 0 0 0 0 0 0 0 0 0 0 0
0 0 0 0 0 0 0 0 0 0 0 0 0 0 0 0 0 0 0 0 0 0 0 0 0 0 0 0 0 0 0 0 0 0 0 0 0 0 0 0 0 0 0 0 0 0 0 0 0
0 0 0 0 0 0 0 0 0 0 0 0 0 0 0 0 0 0 0 0 0 0 0 0 0 0 0 0 0 0 0 0 0 0 0 0 0 0 0 0 0 0 0 0 0 0 0 0 0
0 0 0 0 0 0 0 0 0 0 0 0 0 0 0 0 0 0 0 0 0 0 0 0 0 0 0 0 0 0 0 0 0 0 0 0 0 0 0 0 0 0 0 0 0 0 0 0 0
0 0 0 0 0 0 0 0 0 0 0 0 0 0 0 0 0 0 0 0 0 0 0 0 0 0 0 0 0 0 0 0 0 0 0 0 0 0 0 0 0 0 0 0 0 0 0 0 0
0 0 0 0 0 0 0 0 0 0 0 0 0 0 0 0 0 0 0 0 0 0 0 0 0 0 0 0 0 0 0 0 0 0 0 0 0 1 1 1 0 0 0 0 0 0 0 0 0
0 0 0 0 0 0 0 0 0 0 0 0 0 0 0 0 0 0 0 0 0 0 0 0 0 0 0 0 0 0 0 0 0 0 0 0 1 2 2 2 1 0 0 0 0 0 0 0 0
0 0 0 0 0 0 0 0 0 0 0 0 0 0 0 0 0 0 0 0 0 0 0 0 0 0 0 0 0 0 0 0 0 0 0 0 1 2 2 2 1 0 0 0 0 0 0 0 0
0 0 0 0 0 0 0 0 0 0 0 0 0 0 0 0 0 0 0 0 0 0 0 0 0 0 0 0 0 0 0 0 0 0 0 0 0 1 1 1 1 0 0 0 0 0 0 0 0
0 0 0 0 0 0 0 0 0 0 0 0 0 0 0 0 0 0 0 0 0 0 0 0 0 0 0 0 0 0 0 0 0 0 0 0 0 0 0 0 0 0 0 0 0 0 0 0 0
Wind_Speed
10 7 3 2 2 1 2 3 2 4 3 2 1 1 1 1 3 4 5 8 9 11 10 11 9 12 13 13 13 13 13 13 14 13 13 13 13 13 13 13 13 13 14 14 15 14 14 14 14
8 5 2 2 2 2 3 4 4 3 4 4 3 1 2 2 3 4 6 8 10 11 10 10 10 11 12 12 12 13 13 13 13 13 13 12 12 12 12 12 12 12 13 14 14 14 14 13 14
5 4 2 0 1 2 2 4 4 4 4 2 3 0 1 2 3 6 6 10 10 10 10 11 10 11 12 12 12 13 13 13 13 12 12 12 12 12 12 11 11 12 12 13 13 13 13 13 13
4 1 1 2 1 0 0 2 5 7 5 2 2 3 2 3 3 5 9 11 11 10 10 11 9 11 12 12 12 13 13 13 13 12 12 12 12 11 11 11 11 11 11 12 12 12 12 12 12
2 1 2 2 2 1 1 2 6 7 5 3 3 2 4 3 3 7 11 11 11 10 9 11 9 10 10 11 12 12 13 13 12 12 11 11 11 11 10 10 10 10 11 11 11 11 11 11 11
0 1 4 5 4 1 2 4 6 5 4 3 4 3 4 4 6 9 11 11 10 10 9 10 9 8 9 9 10 11 12 12 12 12 11 11 10 10 10 10 10 10 10 10 10 10 10 10 9
2 3 5 5 5 4 3 5 6 5 5 4 4 3 5 6 7 9 10 9 9 9 9 9 10 10 9 8 9 9 10 10 11 11 11 9 9 9 8 7 8 9 9 9 9 9 9 8 8
1 3 5 6 7 5 4 5 3 5 3 2 4 4 3 7 9 9 9 8 8 9 9 9 9 9 10 10 9 9 9 9 9 10 9 9 8 7 6 6 7 8 9 9 8 8 8 7 7
3 7 9 8 7 4 5 5 3 1 3 3 3 2 4 9 11 10 8 8 8 8 8 8 9 9 9 9 9 9 9 9 10 9 10 8 7 8 6 6 6 7 8 8 8 7 7 6 6
6 9 11 5 5 3 5 5 5 5 5 5 5 4 4 11 12 13 12 12 12 11 10 8 9 9 9 7 8 7 7 8 8 8 9 7 6 5 5 6 5 6 6 7 7 7 6 4 4
7 10 7 5 4 3 4 4 5 6 7 7 7 7 9 12 13 13 13 13 12 12 11 9 9 9 9 7 6 5 5 6 7 8 8 6 6 5 5 5 5 6 6 6 6 6 4 3 2
6 6 4 4 4 4 5 4 6 9 6 1 3 6 11 14 16 16 15 13 12 12 12 11 11 10 10 8 7 6 5 5 6 7 9 7 5 5 5 4 5 5 4 5 5 3 4 4 3
8 5 4 3 3 4 4 7 6 9 7 3 3 7 12 14 15 14 13 12 12 13 13 13 12 11 10 9 7 7 7 7 7 7 8 8 6 6 6 5 5 5 5 5 5 5 5 5 4
7 6 4 4 5 4 7 8 7 10 7 6 7 9 11 13 14 13 14 14 15 14 14 13 13 13 11 10 9 8 7 7 7 7 9 10 7 7 6 6 6 6 6 5 5 5 5 4 4
4 6 8 7 6 5 5 12 14 12 7 9 10 10 10 11 12 15 15 15 15 14 14 14 13 13 13 13 11 8 8 8 8 8 9 10 9 8 7 7 7 6 6 6 5 6 5 5 5
6 9 12 9 8 6 8 17 13 8 9 12 11 11 10 11 13 14 14 14 14 14 15 14 12 14 14 13 12 9 8 9 8 8 8 11 11 10 8 7 7 7 6 6 6 6 6 6 6
9 14 16 11 8 7 12 15 10 6 9 12 12 12 11 11 13 14 14 15 14 15 15 15 15 15 15 14 11 10 9 10 9 9 9 10 12 12 10 8 8 8 7 7 6 7 6 6 6
13 14 13 15 8 10 14 17 13 7 9 13 12 12 12 13 14 13 13 14 14 14 15 16 16 16 14 12 10 9 10 10 9 9 10 12 11 13 11 9 10 9 7 8 8 8 7 6 6
12 14 15 11 7 10 15 18 18 14 13 15 15 14 14 15 14 11 11 12 13 14 16 17 17 16 14 11 11 11 11 10 10 10 12 14 13 14 13 10 10 10 9 10 10 9 9 8 6
14 15 15 8 5 8 12 18 19 18 18 17 18 17 16 15 14 12 12 12 13 15 16 17 18 17 17 14 12 10 11 10 11 10 12 15 15 15 12 14 11 11 10 12 11 11 8 7 7
19 19 16 9 4 6 8 17 20 19 17 17 18 18 18 17 17 15 13 13 13 15 17 15 18 18 19 18 12 9 9 8 10 12 12 15 16 15 14 15 13 12 12 11 13 13 13 10 9
19 17 14 11 8 7 8 13 17 15 17 18 18 18 18 17 17 16 14 14 14 15 15 16 17 18 18 18 15 17 14 14 15 13 12 14 16 16 16 16 15 14 12 13 13 14 12 13 10
11 10 12 13 12 10 10 12 14 10 17 17 17 17 17 17 16 16 15 14 14 13 13 14 16 17 18 18 19 18 17 15 12 13 15 15 14 16 17 16 15 15 13 14 14 13 14 12 12
8 7 7 8 8 14 17 15 16 13 16 15 14 14 15 15 14 14 13 12 12 11 11 12 14 16 17 18 19 20 21 19 17 16 14 13 11 12 17 16 16 15 14 15 15 14 15 13 14
13 10 7 9 10 13 12 14 16 12 14 15 15 14 13 12 12 12 12 11 10 10 10 11 13 15 16 18 19 20 21 21 20 18 16 14 12 12 16 15 15 15 15 14 13 13 14 15 15
21 19 12 10 10 9 9 16 14 8 10 12 13 13 11 11 10 10 10 10 9 9 9 10 12 14 14 16 18 18 20 16 14 18 15 14 13 13 14 16 16 16 15 14 14 12 13 12 14
17 18 13 6 2 6 9 11 13 7 10 12 12 12 12 11 9 9 9 10 10 9 9 9 11 12 13 14 16 16 18 17 17 16 16 14 13 11 14 15 15 16 15 15 14 12 13 13 13
13 12 8 10 9 12 12 15 12 8 11 11 10 10 10 9 8 9 9 9 8 8 8 8 10 11 12 12 13 12 15 16 16 15 15 15 14 13 13 14 14 14 15 14 14 12 13 14 13
15 15 11 8 8 9 11 12 8 10 9 8 7 8 8 8 8 8 8 8 8 7 7 8 8 10 10 11 11 12 13 14 15 14 15 14 13 13 13 13 13 13 14 13 13 14 13 14 14
15 17 17 12 10 10 11 13 3 6 5 4 5 5 6 7 7 8 8 8 8 7 7 7 8 8 9 9 10 11 11 12 13 14 14 13 13 13 13 12 13 13 13 13 13 14 13 14 14
Wind_Direction
326 331 304 272 235 159 122 124 149 148 140 91 109 225 246 359 344 50 98 144 140 143 144 144 135 133 131 130 128 126 123 121 118 116 115 113 112 112 110 109 107 106 104 103 101 98 95 93 91
331 324 298 309 256 214 146 151 172 135 106 124 129 173 190 101 51 96 139 150 150 146 148 144 134 136 135 135 133 130 126 124 121 119 119 117 117 116 115 113 111 109 107 105 104 101 98 95 93
324 337 342 287 241 256 137 154 156 120 138 167 146 134 346 76 121 139 140 151 152 149 148 136 138 138 139 138 137 133 130 127 125 123 122 121 120 119 119 117 112 109 108 107 106 105 102 99 96
319 314 302 241 182 49 13 143 155 151 165 190 192 149 119 68 126 137 143 155 154 151 150 143 143 142 143 142 141 139 136 133 130 128 127 125 124 124 124 121 116 112 110 109 108 108 105 102 98
332 312 239 213 195 160 253 168 174 176 174 170 202 168 134 117 130 141 153 159 157 154 155 151 146 144 144 146 145 144 142 139 136 133 131 130 129 130 130 127 122 117 113 112 111 111 109 105 101
243 244 238 228 203 184 187 172 181 194 175 170 201 180 128 127 154 154 159 164 162 159 159 154 146 145 147 148 147 146 145 143 140 138 137 135 135 136 136 134 130 127 123 119 118 116 113 109 103
229 228 240 236 223 209 167 169 197 197 198 186 197 190 140 159 162 158 162 163 163 163 165 163 163 159 151 148 148 146 144 143 143 141 139 135 135 135 135 137 139 137 132 126 123 122 119 114 108
245 219 221 223 223 217 159 171 208 216 202 119 203 225 136 154 153 155 159 164 167 170 174 172 171 171 168 162 151 148 145 144 142 137 131 129 129 128 127 147 145 144 138 132 129 126 122 118 112
208 225 228 219 218 211 168 183 154 199 160 173 212 308 53 135 150 157 164 172 177 181 183 182 178 178 175 170 158 159 151 147 145 141 137 150 160 156 156 151 138 141 139 137 135 129 122 121 116
207 229 232 220 219 203 180 200 174 184 202 206 203 182 142 154 167 176 183 186 188 189 189 190 188 183 181 172 171 176 172 168 175 167 167 175 170 164 162 129 123 123 131 139 137 131 142 175 152
211 233 228 209 208 209 192 203 193 211 222 223 219 186 166 174 183 192 197 197 196 195 193 197 196 191 188 182 183 182 181 179 184 181 180 179 175 170 177 165 157 161 165 168 157 173 183 183 175
217 228 225 211 193 206 210 201 211 227 239 261 238 180 176 187 194 200 202 203 200 201 200 199 199 198 197 192 190 189 189 188 190 188 189 186 186 188 186 190 186 185 188 188 193 192 188 190 190
214 217 222 231 210 222 217 224 238 241 243 248 209 185 195 200 203 205 207 207 207 207 205 202 202 203 200 197 197 198 199 199 197 193 194 198 196 196 195 197 197 200 199 198 202 203 197 201 202
214 218 226 226 221 219 232 243 239 245 235 225 217 213 210 211 209 207 208 210 210 211 209 205 204 206 204 203 202 203 204 204 206 203 202 203 206 203 200 202 204 207 207 210 211 212 211 214 215
188 215 237 233 221 217 228 246 235 241 226 231 231 230 225 222 217 216 214 213 212 211 210 208 207 206 207 209 209 208 207 206 208 209 208 207 210 209 208 209 209 210 208 210 215 216 221 224 223
183 214 232 220 212 206 218 250 240 230 223 236 238 236 234 229 226 224 221 219 216 213 210 209 206 208 209 211 210 210 210 210 212 211 210 211 212 213 213 216 216 211 209 211 214 216 220 224 228
198 219 226 220 206 200 218 251 251 224 226 241 243 242 242 241 236 230 225 221 218 215 212 210 208 210 210 211 212 212 212 213 215 213 212 212 212 213 215 219 219 211 212 217 217 221 225 229 231
203 215 222 223 199 205 225 244 248 238 242 248 250 249 247 247 245 238 229 224 220 218 216 214 211 212 210 210 213 215 216 217 217 216 217 214 212 212 215 220 219 213 214 217 217 223 225 234 236
221 218 223 227 205 211 234 248 254 251 249 252 251 250 250 251 255 249 237 226 221 218 216 215 213 211 207 206 207 210 214 215 216 218 219 218 216 212 214 217 218 214 217 219 218 220 223 226 224
217 224 227 227 204 225 248 255 257 254 250 251 252 252 252 254 253 247 241 230 221 219 217 217 216 213 209 210 209 213 215 218 219 217 220 220 219 216 214 217 217 213 218 221 219 216 221 223 209
220 224 224 217 187 224 266 263 251 248 245 249 250 252 254 253 254 252 243 235 229 225 220 217 216 214 212 211 210 210 215 220 217 218 219 219 219 218 215 218 219 216 216 219 218 215 218 222 214
222 220 222 213 214 230 225 266 254 247 247 244 246 246 249 249 249 251 249 243 234 230 225 222 220 217 214 210 211 209 210 216 219 219 219 218 216 218 218 219 219 220 218 222 220 218 219 222 223
217 201 209 218 229 244 226 254 262 243 250 247 244 244 245 248 249 250 250 250 247 239 230 225 223 220 216 211 213 214 219 224 226 221 222 220 216 217 218 218 219 220 221 223 222 219 220 221 225
175 167 198 219 229 241 232 236 261 236 243 250 247 245 246 249 251 253 255 255 254 246 234 229 225 224 219 214 214 217 220 223 224 222 221 220 219 217 217 218 220 221 222 223 223 222 221 222 226
188 183 194 204 216 236 222 227 250 243 236 243 250 252 252 252 254 256 257 256 256 252 240 232 228 229 223 218 218 219 223 224 225 225 224 222 220 219 217 214 218 221 224 225 223 222 224 224 226
200 203 208 215 223 227 203 231 249 242 240 244 253 260 262 260 260 263 267 266 264 259 249 239 234 234 228 223 223 223 224 225 228 228 226 224 223 223 220 215 218 221 223 223 224 224 225 226 227
199 212 222 236 239 244 224 244 261 243 243 241 246 254 258 262 268 271 272 270 268 265 256 245 241 239 234 229 227 226 224 226 229 230 228 229 229 227 223 218 217 219 221 222 222 225 225 225 227
210 189 187 205 213 232 238 239 242 215 221 229 238 248 260 269 275 279 279 278 277 274 269 257 246 244 241 235 230 228 227 227 230 232 231 230 231 227 225 222 220 220 220 221 221 225 227 227 228
193 199 199 203 218 229 245 246 236 232 220 226 238 252 266 278 285 289 291 292 288 283 275 267 258 252 246 240 235 231 230 229 229 231 232 232 232 228 226 223 222 222 222 221 222 225 225 228 231
208 207 201 208 211 223 244 255 176 208 216 232 258 272 283 288 290 294 298 300 297 292 286 277 270 260 253 246 240 237 235 233 231 231 232 231 231 229 226 223 222 222 223 222 222 226 227 229 231